FALCON 9 DEB (47922 NORAD) Tracking and Keplerian Element Data

This shows tracking and keplerian element data for the satellite.

Feedback or suggestion? Click here.




ElementValue
Catalog47922
NameFALCON 9 DEB
Epoch Orbit400
Epoch Day98.19659813
Epoch Year2021
RAAN89.2144
Inclination53.0328
Eccentricity0.0006057
Argument of Perigee281.7205
Mean Anonmoly78.3164
Mean Motion16.46306999
Decay Rate0.09737086
L11 47922U 21021BQ 21098.19659813 .09737086 12558-4 21327-3 0 9995
L22 47922 53.0328 89.2144 0006057 281.7205 78.3164 16.46306999 4004



Live tracking and technical data element details for FALCON 9 DEB (NORAD 47922). FALCON 9 DEB can be tracked NOW for your location showing map with azimuth and elevation plus other details from your city location.







IsCatalogInMostPopularTable: catalog: 47922, numindb: 101
Update: records affected: 1



GetName: 47922 FALCON 9 DEB

Hit Count: updated at: Sun, 28 May 2023 06:22:46 GMT